sat.trackr.live / text

‹ back to catalog

STARLINK-6303

NORAD 56393 · 2023-061V

PAYLOAD ACTIVE UNKNOWN

§ Identity

Operator
Country
US
Launch date
2023-05-04
Launch site
AFETR
Launch vehicle
Mass (kg)
RCS (m²)

Purposes: comms

External: N2YO · Heavens-Above · Gunter

§ Orbital elements

Epoch: 2026-09-19T04:41:25.562400Z

Period
94.27 min
Inclination
43.0009°
Eccentricity
0.0001440
Mean motion
15.27575549 rev/d
Perigee alt
482.1 km
Apogee alt
484.1 km
Semi-major
6,861.2 km
B*
2.7032e-5
RAAN
185.0983°
Arg perigee
263.2954°
Mean anomaly
96.7734°
Rev number
18,634

§ Raw data

STARLINK-63031 56393U 23061V   26262.19543475  .00000482  00000+0  27032-4 0  99952 56393  43.0009 185.0983 0001440 263.2954  96.7734 15.27575549186346

JSON: /api/v1/satellites/56393 · /tle

For live sub-satellite position, see the globe view (requires WebGL).

§ Visibility from observer

Set your observer location to see the next 7 days of passes ≥ 10°. The values pass through the URL so the page stays shareable.

No JS? Fill the form by hand. The geolocation button needs JavaScript.